Tracking 18852 objects as of 23-Nov-2017
HD Live streaming from Space Station
objects crossing your sky now

FENGYUN 1C DEB

Track FENGYUN 1C DEB now!
10-day predictions


NORAD ID: 31213
Int'l Code: 1999-025BKT
Perigee: 777.5 km
Apogee: 822.6 km
Inclination: 99.5 °
Period: 100.7 minutes
Semi major axis: 7171 km
RCS: 0.0047 m2 (small)
Launch date: May 10, 1999
Source: People's Republic of China (PRC)
Launch site: Taiyaun Space Center, China (TSC)

Note: This is SATELLITE DEBRIS
aabbcc
Your satellite tracking list
Your tracking list is empty




NASA's NSSDC Master Catalog

Two Line Element Set (TLE):
1 31213U 99025BKT 17326.23652561 +.00003362 +00000-0 +13249-2 0  9999
2 31213 099.4604 232.7945 0031441 290.0241 069.7555 14.29642477549558
Source of the keplerian elements: AFSPC